• In Deutschland
  • Länderverzeichnis
  • Für 7 Tage
  • Wassertemperatur
  • Satellitenkarten
  • Wetterkarte
  • Widgets
  • user-avatar
    Anmelden

    Stündliche Wetter Mokoa

    Heute, 22 Juli, Sonntag

    Zeit Temperatur Niederschläge Wind Luftdruck Luftfeuchtigkeit
    00:00 +29°C° 0 mm 7 m/S 753 mmHg 78%
    01:00 +28°C° 0 mm 7 m/S 753 mmHg 79%
    02:00 +28°C° 0 mm 7 m/S 753 mmHg 81%
    03:00 +28°C° 0 mm 7 m/S 753 mmHg 82%
    04:00 +28°C° 0 mm 6 m/S 753 mmHg 83%
    05:00 +28°C° 0 mm 7 m/S 753 mmHg 80%
    06:00 +29°C° 0 mm 7 m/S 754 mmHg 78%
    07:00 +29°C° 0 mm 7 m/S 754 mmHg 76%
    08:00 +32°C° 0 mm 7 m/S 754 mmHg 67%
    09:00 +34°C° 0 mm 7 m/S 754 mmHg 59%
    10:00 +36°C° 0 mm 7 m/S 754 mmHg 50%
    11:00 +38°C° 0 mm 7 m/S 754 mmHg 47%
    12:00 +39°C° 0 mm 7 m/S 753 mmHg 44%
    13:00 +40°C° 0 mm 7 m/S 753 mmHg 41%
    14:00 +39°C° 0 mm 7 m/S 752 mmHg 42%
    15:00 +38°C° 0 mm 7 m/S 752 mmHg 44%
    16:00 +38°C° 0 mm 7 m/S 751 mmHg 46%
    17:00 +35°C° 0,2 mm 6 m/S 751 mmHg 54%
    18:00 +33°C° 0,2 mm 6 m/S 752 mmHg 62%
    19:00 +30°C° 0,2 mm 5 m/S 752 mmHg 70%
    20:00 +29°C° 0,1 mm 5 m/S 753 mmHg 73%
    21:00 +29°C° 0,1 mm 5 m/S 753 mmHg 76%
    22:00 +28°C° 0,1 mm 5 m/S 754 mmHg 79%
    23:00 +28°C° 0 mm 5 m/S 754 mmHg 80%

    Morgen, 23 Juli, Montag

    Zeit Temperatur Niederschläge Wind Luftdruck Luftfeuchtigkeit
    00:00 +28°C° 0 mm 5 m/S 753 mmHg 82%
    01:00 +28°C° 0 mm 5 m/S 753 mmHg 83%
    02:00 +28°C° 0 mm 5 m/S 753 mmHg 84%
    03:00 +27°C° 0 mm 5 m/S 753 mmHg 86%
    04:00 +27°C° 0 mm 4 m/S 753 mmHg 87%
    05:00 +28°C° 0 mm 5 m/S 753 mmHg 85%
    06:00 +28°C° 0 mm 5 m/S 754 mmHg 82%
    07:00 +29°C° 0 mm 6 m/S 754 mmHg 80%
    08:00 +30°C° 0 mm 6 m/S 754 mmHg 73%
    09:00 +33°C° 0 mm 6 m/S 754 mmHg 66%
    10:00 +34°C° 0 mm 6 m/S 755 mmHg 60%
    11:00 +35°C° 0 mm 6 m/S 754 mmHg 55%
    12:00 +36°C° 0 mm 6 m/S 753 mmHg 50%
    13:00 +38°C° 0 mm 6 m/S 753 mmHg 45%
    14:00 +38°C° 0 mm 6 m/S 752 mmHg 46%
    15:00 +38°C° 0 mm 6 m/S 752 mmHg 48%
    16:00 +36°C° 0 mm 7 m/S 751 mmHg 49%
    17:00 +34°C° 0,1 mm 6 m/S 752 mmHg 57%
    18:00 +33°C° 0,1 mm 6 m/S 752 mmHg 65%
    19:00 +30°C° 0,1 mm 5 m/S 753 mmHg 73%
    20:00 +29°C° 0 mm 5 m/S 753 mmHg 76%
    21:00 +29°C° 0 mm 5 m/S 754 mmHg 78%
    22:00 +28°C° 0 mm 5 m/S 754 mmHg 80%
    23:00 +28°C° 0 mm 5 m/S 754 mmHg 81%

    übermorgen, 24 Juli, Dienstag

    Zeit Temperatur Niederschläge Wind Luftdruck Luftfeuchtigkeit
    00:00 +28°C° 0 mm 5 m/S 754 mmHg 82%
    01:00 +28°C° 0 mm 5 m/S 754 mmHg 82%
    02:00 +28°C° 0 mm 5 m/S 754 mmHg 83%
    03:00 +28°C° 0 mm 5 m/S 754 mmHg 83%
    04:00 +28°C° 0 mm 5 m/S 754 mmHg 84%
    05:00 +28°C° 0 mm 5 m/S 754 mmHg 81%
    06:00 +29°C° 0 mm 6 m/S 755 mmHg 79%
    07:00 +29°C° 0 mm 6 m/S 755 mmHg 77%
    08:00 +30°C° 0 mm 6 m/S 755 mmHg 72%
    09:00 +32°C° 0 mm 7 m/S 755 mmHg 68%
    10:00 +33°C° 0 mm 7 m/S 756 mmHg 63%
    11:00 +34°C° 0,1 mm 6 m/S 755 mmHg 60%
    12:00 +35°C° 0,1 mm 6 m/S 755 mmHg 57%
    13:00 +36°C° 0,1 mm 6 m/S 754 mmHg 54%
    14:00 +36°C° 0,3 mm 6 m/S 754 mmHg 56%
    15:00 +35°C° 0,3 mm 6 m/S 753 mmHg 57%
    16:00 +35°C° 0,3 mm 6 m/S 753 mmHg 59%
    17:00 +33°C° 0,1 mm 6 m/S 753 mmHg 64%
    18:00 +32°C° 0,1 mm 6 m/S 754 mmHg 69%
    19:00 +30°C° 0,1 mm 5 m/S 754 mmHg 75%
    20:00 +29°C° 0,3 mm 5 m/S 755 mmHg 77%
    21:00 +29°C° 0,3 mm 5 m/S 755 mmHg 80%
    22:00 +28°C° 0,3 mm 5 m/S 756 mmHg 83%
    23:00 +28°C° 0,5 mm 5 m/S 755 mmHg 84%

    25 Juli, Mittwoch

    Zeit Temperatur Niederschläge Wind Luftdruck Luftfeuchtigkeit
    00:00 +28°C° 0,5 mm 5 m/S 755 mmHg 85%
    01:00 +28°C° 0,5 mm 5 m/S 755 mmHg 86%
    02:00 +28°C° 0,8 mm 5 m/S 754 mmHg 87%
    03:00 +28°C° 0,8 mm 5 m/S 754 mmHg 88%
    04:00 +27°C° 0,8 mm 5 m/S 754 mmHg 88%
    05:00 +28°C° 0,9 mm 5 m/S 755 mmHg 87%
    06:00 +28°C° 0,9 mm 5 m/S 755 mmHg 86%
    07:00 +28°C° 0,9 mm 5 m/S 755 mmHg 85%
    08:00 +30°C° 0,4 mm 5 m/S 756 mmHg 77%
    09:00 +32°C° 0,4 mm 5 m/S 756 mmHg 68%
    10:00 +34°C° 0,4 mm 5 m/S 756 mmHg 60%
    11:00 +35°C° 0,1 mm 5 m/S 755 mmHg 57%
    12:00 +36°C° 0,1 mm 5 m/S 755 mmHg 55%
    13:00 +36°C° 0,1 mm 5 m/S 754 mmHg 52%
    14:00 +36°C° 0,2 mm 5 m/S 753 mmHg 51%
    15:00 +36°C° 0,2 mm 5 m/S 753 mmHg 51%
    16:00 +36°C° 0,2 mm 5 m/S 753 mmHg 50%
    17:00 +34°C° 0 mm 5 m/S 753 mmHg 57%
    18:00 +33°C° 0 mm 5 m/S 753 mmHg 64%
    19:00 +30°C° 0 mm 5 m/S 754 mmHg 71%
    20:00 +29°C° 0 mm 5 m/S 754 mmHg 74%
    21:00 +29°C° 0 mm 5 m/S 755 mmHg 77%
    22:00 +28°C° 0 mm 5 m/S 755 mmHg 80%
    23:00 +28°C° 0 mm 4 m/S 755 mmHg 81%

    26 Juli, Donnerstag

    Zeit Temperatur Niederschläge Wind Luftdruck Luftfeuchtigkeit
    00:00 +28°C° 0 mm 4 m/S 754 mmHg 83%
    01:00 +28°C° 0 mm 4 m/S 754 mmHg 85%
    02:00 +28°C° 0 mm 4 m/S 754 mmHg 85%
    03:00 +28°C° 0 mm 4 m/S 754 mmHg 85%
    04:00 +28°C° 0 mm 4 m/S 754 mmHg 86%
    05:00 +28°C° 0 mm 5 m/S 754 mmHg 84%
    06:00 +28°C° 0 mm 5 m/S 755 mmHg 83%
    07:00 +29°C° 0 mm 6 m/S 755 mmHg 81%
    08:00 +30°C° 0 mm 5 m/S 755 mmHg 74%
    09:00 +32°C° 0 mm 5 m/S 755 mmHg 68%
    10:00 +34°C° 0 mm 5 m/S 755 mmHg 62%
    11:00 +35°C° 0,4 mm 5 m/S 754 mmHg 58%
    12:00 +36°C° 0,4 mm 5 m/S 754 mmHg 55%
    13:00 +37°C° 0,4 mm 4 m/S 753 mmHg 51%
    14:00 +37°C° 0,7 mm 4 m/S 753 mmHg 53%
    15:00 +36°C° 0,7 mm 4 m/S 753 mmHg 54%
    16:00 +36°C° 0,7 mm 5 m/S 752 mmHg 56%
    17:00 +34°C° 0,4 mm 5 m/S 753 mmHg 62%
    18:00 +32°C° 0,4 mm 5 m/S 753 mmHg 68%
    19:00 +30°C° 0,4 mm 5 m/S 754 mmHg 74%
    20:00 +29°C° 0 mm 5 m/S 754 mmHg 76%
    21:00 +29°C° 0 mm 5 m/S 754 mmHg 78%
    22:00 +28°C° 0 mm 4 m/S 755 mmHg 80%
    23:00 +28°C° 0,2 mm 4 m/S 754 mmHg 81%

    27 Juli, Freitag

    Zeit Temperatur Niederschläge Wind Luftdruck Luftfeuchtigkeit
    00:00 +28°C° 0,2 mm 4 m/S 754 mmHg 83%
    01:00 +28°C° 0,2 mm 4 m/S 754 mmHg 84%
    02:00 +28°C° 0,7 mm 4 m/S 754 mmHg 84%
    03:00 +28°C° 0,7 mm 4 m/S 754 mmHg 85%
    04:00 +27°C° 0,7 mm 4 m/S 754 mmHg 85%
    05:00 +28°C° 0,9 mm 5 m/S 754 mmHg 83%
    06:00 +28°C° 0,9 mm 5 m/S 755 mmHg 81%
    07:00 +29°C° 0,9 mm 6 m/S 755 mmHg 80%
    08:00 +30°C° 0,3 mm 6 m/S 755 mmHg 73%
    09:00 +32°C° 0,3 mm 5 m/S 755 mmHg 67%
    10:00 +34°C° 0,3 mm 5 m/S 755 mmHg 60%
    11:00 +35°C° 0 mm 5 m/S 755 mmHg 56%
    12:00 +35°C° 0 mm 5 m/S 754 mmHg 52%
    13:00 +36°C° 0 mm 5 m/S 754 mmHg 48%
    14:00 +36°C° 0,2 mm 5 m/S 753 mmHg 51%
    15:00 +35°C° 0,2 mm 5 m/S 753 mmHg 54%
    16:00 +34°C° 0,2 mm 5 m/S 753 mmHg 57%
    17:00 +33°C° 0,6 mm 5 m/S 753 mmHg 62%
    18:00 +32°C° 0,6 mm 5 m/S 753 mmHg 67%
    19:00 +30°C° 0,6 mm 5 m/S 754 mmHg 72%
    20:00 +29°C° 0,5 mm 5 m/S 754 mmHg 73%
    21:00 +29°C° 0,5 mm 5 m/S 755 mmHg 75%
    22:00 +29°C° 0,5 mm 5 m/S 755 mmHg 77%
    23:00 +28°C° 0,3 mm 6 m/S 755 mmHg 78%
    Mehr zeigen